Racecast

NHC

Purdue University Fort Wayne · 5000m · Girls · Varsity · 2012-09-29 · IN

Course difficulty: -0.029

Race-day weather: 62°F · wind 21 mph · humidity 49%

View full meet →

Team scores

Place Team Points 12345 67
1 Carroll (Fort Wayne) (IN) 34 1 2 9 10 12 13 14
2 Homestead (IN) 70 4 5 15 18 28 32 33
3 East Noble (IN) 113 8 16 21 25 43 47 50
4 Bellmont (IN) 121 17 20 22 27 35 52 53
5 Norwell (IN) 123 11 19 26 29 38 45 49
6 Dekalb (IN) 130 6 24 30 34 36 41 44
7 Columbia City (IN) 133 3 23 31 37 39 40
8 New Haven (IN) 194 7 42 46 48 51

As scored by the meet.

Results

Place Athlete Grade School Time Rating Points
1 Olivia Hippensteel 12 Carroll (Fort Wayne) (IN) 1 18:49.3 134.2 1
2 Madison Fruchey 9 Carroll (Fort Wayne) (IN) 2 18:57 PR 133.3 2
3 Samantha Roush 11 Columbia City (IN) 1 18:58.8 SR 133.1 3
4 Grace Walther 9 Homestead (WI) 1 19:08.8 PR 131.9 4
5 Taylor Busch 11 Homestead (WI) 2 19:21.5 PR 130.5 5
6 Krista McCormick 9 Dekalb (IN) 1 19:22.8 PR 130.3 6
7 Brenda Diaz 12 New Haven (MO) 1 19:24.4 PR 130.2 7
8 Alexia Zawadzke 11 East Noble (IN) 1 19:25.7 PR 130.0 8
9 Stacey Metzger 10 Carroll (Fort Wayne) (IN) 3 19:31.5 129.4 9
10 Coral Whaley 11 Carroll (Fort Wayne) (IN) 4 19:34 SR 129.1 10
11 Hannah Aschliman 10 Norwell (MA) 1 19:34.9 PR 129.0 11
12 Caitlyn Chastain 11 Carroll (Fort Wayne) (IN) 5 19:35.7 PR 128.9 12
13 Kate Morris 11 Carroll (Fort Wayne) (IN) 6 19:38.3 SR 128.6 13
14 Melanie Ruich 12 Carroll (Fort Wayne) (IN) 7 19:42.2 128.2 14
15 Mariah Jordon 12 Homestead (WI) 3 19:43.5 PR 128.1 15
16 Cheryl Morris 12 East Noble (IN) 2 19:55.5 PR 126.8 16
17 Cadence Faurote 11 Bellmont (IN) 1 20:05.9 PR 125.7 17
18 Madeline Faber 10 Homestead (WI) 4 20:22.7 PR 124.0 18
19 Jessie Best 11 Norwell (MA) 2 20:27.9 SR 123.4 19
20 Bailey Beery 9 Bellmont (IN) 2 20:40.1 PR 122.2 20
21 Courtney Casselman 11 East Noble (IN) 3 20:42.1 SR 122.0 21
22 Sarah Garner 12 Bellmont (IN) 3 20:50 PR 121.2 22
23 Brooke Werstler 11 Columbia City (IN) 2 20:55.2 SR 120.7 23
24 Caren Hernandez 10 Dekalb (IN) 2 20:56.4 PR 120.6 24
25 Kara McLaughlin 11 East Noble (IN) 4 21:02.7 PR 120.0 25
26 Sara Devoe 10 Norwell (MA) 3 21:03.4 PR 120.0 26
27 Emily Gunsett 9 Bellmont (IN) 4 21:13.3 PR 119.0 27
28 Mary Landrigan 9 Homestead (WI) 5 21:21.4 PR 118.3 28
29 Emily Springer 11 Norwell (MA) 4 21:24.5 PR 118.0 29
30 Tiara Teders 12 Dekalb (IN) 3 21:25.7 SR 117.9 30
31 Kristen Shively 10 Columbia City (IN) 3 21:26.8 PR 117.8 31
32 Kylie Burton 12 Homestead (WI) 6 21:30.3 SR 117.5 32
33 Shannon Didier 11 Homestead (WI) 7 21:37.8 116.8 33
34 Ashlyn Teders 10 Dekalb (IN) 4 21:43.3 SR 116.3 34
35 Allyson Norby 10 Bellmont (IN) 5 21:47.2 PR 115.9 35
36 Taylor Beachy 10 Dekalb (IN) 5 22:04 SR 114.5 36
37 Erin Knepple 11 Columbia City (IN) 4 22:07.8 SR 114.1 37
38 Monica Frauhiger 10 Norwell (MA) 5 22:10.7 SR 113.9 38
39 Shelby Allison 10 Columbia City (IN) 5 22:17.7 SR 113.3 39
40 Korina Rubrake 9 Columbia City (IN) 6 22:18.1 PR 40
41 Kara Robinett 11 Dekalb (IN) 6 22:43.2 111.2 41
42 Hayley Newman 9 New Haven (MO) 2 22:55.3 PR 110.2 42
43 Michaela Corbin 12 East Noble (IN) 5 23:15.5 SR 108.6 43
44 MaKayla Rieke 11 Dekalb (IN) 7 23:20.9 PR 108.2 44
45 Alex Wall 12 Norwell (MA) 6 23:28.5 SR 107.6 45
46 Mikala Hiatt 12 New Haven (MO) 3 23:50.7 105.9 46
47 Jordan Krock 12 East Noble (IN) 6 23:59.5 PR 105.3 47
48 Amanda Fendel 12 New Haven (MO) 4 24:06.7 PR 104.8 48
49 Samantha Tolson 11 Norwell (MA) 7 24:22.7 103.6 49
50 Kendell Hess 12 East Noble (IN) 7 24:26.6 SR 103.3 50
51 Angela Lahr 11 New Haven (MO) 5 24:33.8 SR 102.8 51
52 Kaylee Covella 9 New Haven (MO) 6 24:52.3 PR 101.5 52
53 Marissa Tupai 9 Bellmont (IN) 6 25:08.7 PR 100.5 53
54 Marie Fisher 9 Bellmont (IN) 7 25:19.9 PR 99.7 54
Something wrong on this page? Report it →